EW7112 Weather Reports


time (UTC)temp
F
wind
direction
speed
knots
gust
knots
rain 1hr
in
rain 24hr
in
rain mn
in
humidity
%
barometer
mb
20260901040032 88 104 0.0 0.0 0.00 0.00 0.00 47 992.1
20260901034533 89 104 0.0 0.9 0.00 0.00 0.00 45 992.0
20260901033047 90 104 0.0 1.7 0.00 0.00 0.00 44 991.9
20260901031531 91 104 0.0 0.0 0.00 0.00 0.00 42 992.0
20260901030033 91 104 0.0 1.7 0.00 0.00 0.00 41 991.8
20260901024527 91 111 0.9 3.5 0.00 0.00 0.00 39 991.7
20260901023025 92 123 0.0 2.6 0.00 0.00 0.00 39 991.5
20260901021524 92 120 0.0 1.7 0.00 0.00 0.00 38 991.3
20260901020029 93 120 0.0 0.9 0.00 0.00 0.00 37 991.1
20260901014522 94 120 0.0 2.6 0.00 0.00 0.00 35 991.0
20260901013022 94 117 0.0 2.6 0.00 0.00 0.00 35 990.9
20260901011521 95 113 0.0 2.6 0.00 0.00 0.00 34 990.7
20260901010021 96 108 0.9 3.5 0.00 0.00 0.00 34 990.8
20260901004522 96 131 0.9 4.3 0.00 0.00 0.00 34 990.7
20260901003034 97 92 0.9 4.3 0.00 0.00 0.00 33 990.7
20260901001520 97 122 1.7 5.2 0.00 0.00 0.00 32 990.7
20260901000030 98 117 2.6 7.0 0.00 0.00 0.00 32 990.7
20260831234517 98 129 2.6 7.8 0.00 0.00 0.00 32 990.7
20260831233016 99 105 0.9 6.1 0.00 0.00 0.00 32 990.7
20260831231516 99 103 2.6 7.0 0.00 0.00 0.00 32 990.7
20260831230016 99 174 1.7 7.0 0.00 0.00 0.00 32 990.8
20260831224510 99 42 2.6 7.0 0.00 0.00 0.00 31 990.8
20260831223009 99 110 1.7 7.0 0.00 0.00 0.00 33 991.0
20260831221506 100 84 0.9 5.2 0.00 0.00 0.00 33 991.0
20260831220005 99 127 2.6 7.0 0.00 0.00 0.00 33 991.2
20260831214502 99 133 2.6 8.7 0.00 0.00 0.00 32 991.4
20260831213004 101 119 3.5 9.6 0.00 0.00 0.00 30 991.3
20260831211603 100 113 2.6 11.3 0.00 0.00 0.00 32 991.5
20260831210055 99 91 2.6 8.7 0.00 0.00 0.00 32 991.6
20260831204554 100 131 1.7 7.8 0.00 0.00 0.00 33 991.9
20260831203100 100 98 3.5 8.7 0.00 0.00 0.00 32 992.1
20260831201553 100 165 2.6 7.0 0.00 0.00 0.00 32 992.2
20260831200050 99 114 2.6 7.0 0.00 0.00 0.00 34 992.5
20260831194554 98 359 1.7 6.1 0.00 0.00 0.00 34 992.7
20260831193043 98 93 0.9 6.1 0.00 0.00 0.00 36 992.9
20260831191541 99 135 0.9 7.8 0.00 0.00 0.00 34 993.0
20260831190052 98 127 0.9 10.4 0.00 0.00 0.00 36 993.1
20260831184535 97 201 4.3 8.7 0.00 0.00 0.00 36 993.3
20260831183032 98 226 3.5 11.3 0.00 0.00 0.00 37 993.5
20260831181530 97 89 3.5 7.8 0.00 0.00 0.00 39 993.8
20260831180026 96 325 0.9 7.0 0.00 0.00 0.00 41 994.0
20260831174524 96 75 3.5 7.8 0.00 0.00 0.00 42 994.4
20260831173022 96 226 1.7 7.0 0.00 0.00 0.00 43 994.6
20260831171520 95 103 3.5 7.0 0.00 0.00 0.00 42 994.6
20260831170017 94 240 2.6 6.1 0.00 0.00 0.00 44 994.8
20260831164522 93 199 1.7 6.1 0.00 0.00 0.00 44 994.8
20260831163010 92 277 1.7 6.1 0.00 0.00 0.00 45 994.8
20260831161510 91 242 2.6 7.8 0.00 0.00 0.00 46 995.0
20260831160005 90 212 0.9 7.0 0.00 0.00 0.00 48 995.0
20260831154503 90 168 0.9 7.0 0.00 0.00 0.00 50 994.9
20260831153059 89 359 1.7 6.1 0.00 0.00 0.00 51 994.9
20260831151556 88 219 1.7 5.2 0.00 0.00 0.00 53 994.9
20260831150103 88 229 0.9 7.0 0.00 0.00 0.00 56 994.7
20260831144558 86 302 0.9 6.1 0.00 0.00 0.00 58 994.5
20260831143049 86 176 2.6 6.1 0.00 0.00 0.00 60 994.6
20260831141548 85 163 1.7 6.1 0.00 0.00 0.00 62 994.7
20260831140043 84 108 2.6 5.2 0.00 0.00 0.00 64 994.9
20260831134541 83 94 1.7 4.3 0.00 0.00 0.00 67 994.6
20260831133037 82 219 1.7 3.5 0.00 0.00 0.00 68 994.3
20260831131534 82 113 0.0 3.5 0.00 0.00 0.00 69 994.1
20260831130031 81 109 0.9 3.5 0.00 0.00 0.00 70 994.0
20260831124529 81 188 0.0 1.7 0.00 0.00 0.00 69 993.5
20260831123026 81 213 0.0 2.6 0.00 0.00 0.00 69 993.3
20260831121524 81 138 0.0 0.9 0.00 0.00 0.00 68 993.2
20260831120035 82 139 0.0 0.9 0.00 0.00 0.00 67 993.0
20260831114524 82 139 0.0 1.7 0.00 0.00 0.00 66 992.9
20260831113019 82 139 0.0 1.7 0.00 0.00 0.00 66 992.8
20260831111514 82 139 0.0 0.9 0.00 0.00 0.00 65 992.6
20260831110010 83 139 0.0 2.6 0.00 0.00 0.00 65 992.5
20260831104510 83 194 0.0 2.6 0.00 0.00 0.00 64 992.3
20260831103008 83 209 1.7 4.3 0.00 0.00 0.00 63 992.4
20260831101504 83 153 0.0 0.9 0.00 0.00 0.00 62 992.3
20260831100000 84 156 0.0 1.7 0.00 0.00 0.00 61 992.4
20260831094604 84 131 0.0 4.3 0.00 0.00 0.00 61 992.2
20260831093057 84 220 0.9 3.5 0.00 0.00 0.00 60 992.2
20260831091601 85 182 0.9 5.2 0.00 0.00 0.00 59 992.0
20260831090053 85 221 1.7 4.3 0.00 0.00 0.00 58 992.0
20260831084551 85 236 0.9 7.0 0.00 0.00 0.00 57 991.9
20260831083050 85 197 0.9 7.0 0.00 0.00 0.00 56 992.0
20260831081550 86 186 1.7 5.2 0.00 0.00 0.00 55 992.0
20260831080100 86 230 2.6 8.7 0.00 0.00 0.00 54 992.0
20260831074542 87 198 2.6 7.0 0.00 0.00 0.00 53 991.8
20260831073102 87 226 2.6 4.3 0.00 0.00 0.00 51 991.8
20260831071550 87 205 0.9 5.2 0.00 0.00 0.00 50 991.7
20260831070039 87 237 0.9 3.5 0.00 0.00 0.00 50 991.6
20260831064541 87 205 0.0 2.6 0.00 0.00 0.00 51 991.8
20260831063042 87 205 0.0 0.9 0.00 0.00 0.00 50 991.8
20260831061533 88 205 0.0 0.9 0.00 0.00 0.00 51 991.7
20260831060030 88 205 0.0 1.7 0.00 0.00 0.00 49 991.8
20260831054528 89 200 0.0 1.7 0.00 0.00 0.00 49 992.0
20260831053025 89 116 0.0 1.7 0.00 0.00 0.00 47 991.8
20260831051526 90 140 0.0 0.9 0.00 0.00 0.00 47 991.7
20260831050020 90 135 0.0 1.7 0.00 0.00 0.00 46 991.6
20260831044520 90 131 0.0 2.6 0.00 0.00 0.00 45 991.5
20260831043019 91 105 0.0 1.7 0.00 0.00 0.00 45 991.6
20260831041519 91 103 0.0 1.7 0.00 0.00 0.00 45 991.4